Theta_e
313 310 310 311 315 314 315 318 317 317 318 320 322 323 323 324 324 325 325 325 326 326 326 326 327 327 327 327 327 327 327 327 326 326 327 328 331 332 332 332 333 333 332 334 334 334 335 334 335 335 335 335 334 335 336 335 336 335 336 336 338 340 340 343 343 343 342 344 344 344 343 342 344 347 347 346 347 345 345 346 346 347 348 346 347
308 309 309 310 312 313 315 315 316 317 318 321 322 322 324 324 324 325 325 325 325 326 325 326 326 326 327 327 327 326 326 326 326 326 326 329 331 331 331 332 332 332 332 332 332 333 333 334 334 334 334 334 334 334 335 335 336 335 335 335 336 337 340 340 342 341 343 342 342 343 342 343 342 343 346 345 346 347 344 345 345 346 347 346 345
311 309 309 310 312 315 315 314 316 318 320 320 321 323 323 323 324 324 324 324 325 325 325 325 325 326 326 326 325 325 326 326 326 326 327 329 330 331 331 331 331 332 331 331 332 332 332 333 334 333 333 333 333 334 334 334 334 333 334 335 335 336 339 340 340 341 342 341 341 342 340 344 343 345 345 345 344 346 343 345 345 346 346 346 344
311 309 308 310 314 314 312 314 317 319 319 320 322 322 322 322 323 323 323 324 324 324 325 324 325 325 324 324 324 325 326 326 326 327 328 328 329 330 330 331 331 331 330 330 330 330 331 331 331 331 331 331 331 332 333 332 332 332 332 334 334 335 337 340 339 339 339 339 339 340 340 343 342 343 345 345 345 343 339 343 344 345 344 346 344
310 309 308 308 309 309 311 314 318 318 318 321 321 321 321 322 322 322 323 323 324 324 324 324 324 323 323 323 324 324 325 326 326 327 327 328 329 329 330 331 330 330 329 329 329 329 330 329 329 329 330 329 331 331 331 331 331 332 332 333 334 335 336 338 338 339 337 338 338 340 339 341 339 341 344 344 344 343 341 343 343 344 344 344 344
309 310 308 307 308 310 310 315 318 317 318 320 320 320 320 321 321 322 322 322 323 324 323 323 323 323 323 323 323 323 324 324 324 325 326 326 328 329 329 329 329 328 328 328 328 327 327 327 327 327 328 328 328 329 330 330 330 331 332 334 335 335 336 336 337 338 338 340 339 340 341 340 338 338 343 344 344 340 340 340 342 344 344 344 345
308 310 309 308 308 309 311 314 318 317 318 319 319 319 319 319 320 321 321 322 322 322 322 322 322 322 321 321 321 322 322 323 323 325 326 326 327 328 328 327 327 327 327 328 328 327 327 326 325 327 326 326 327 328 330 330 330 330 331 332 334 334 334 336 336 337 338 339 340 339 340 338 339 338 341 344 343 341 340 342 344 344 345 345 342
310 313 310 309 309 308 312 314 317 316 317 318 318 318 318 318 318 320 320 321 321 321 321 321 321 320 320 321 321 321 321 321 322 324 326 326 328 327 327 326 326 326 326 326 326 327 326 326 326 326 327 328 326 327 327 328 328 329 330 332 332 333 334 335 336 337 338 338 338 340 340 340 340 340 340 344 342 343 343 342 344 343 343 341 340
308 309 309 309 309 311 313 313 317 315 316 317 317 317 317 317 317 319 319 320 320 320 320 320 320 320 320 320 319 319 319 321 322 324 325 327 327 326 326 326 326 326 327 326 325 325 325 326 326 327 326 327 327 325 325 326 327 329 329 330 332 333 334 334 335 335 337 337 339 340 339 339 340 340 341 343 344 343 343 342 341 341 340 338 340
308 309 309 309 310 312 313 313 317 314 315 315 316 316 316 316 317 318 318 319 319 320 319 319 319 319 318 318 318 318 318 320 322 324 325 327 326 326 326 326 326 326 327 328 328 325 326 327 326 326 326 327 327 325 324 324 325 327 328 330 330 332 331 332 333 334 334 339 338 338 338 337 339 337 341 344 343 342 341 339 338 339 339 341 341
308 308 309 310 312 313 314 315 317 315 314 314 315 316 316 316 316 317 318 318 318 318 318 318 318 318 317 317 316 316 316 319 322 323 324 325 325 326 326 326 326 326 326 326 326 326 326 326 326 326 325 325 326 326 325 325 325 326 327 328 329 330 330 332 334 334 333 337 336 337 336 336 337 336 341 342 342 342 340 339 338 340 339 339 339
308 309 310 310 315 312 314 316 318 317 314 313 314 315 315 315 315 316 317 318 318 318 318 317 317 317 316 316 315 314 315 319 322 322 323 324 325 324 325 326 325 326 326 326 326 326 325 326 325 325 325 326 325 326 325 324 325 326 326 327 327 328 331 331 332 334 334 336 336 336 335 336 336 336 339 342 341 340 338 338 340 340 339 339 339
309 308 309 311 313 313 314 315 317 317 315 313 313 314 314 314 315 315 316 316 316 317 317 317 316 315 315 315 313 313 314 318 321 322 322 323 323 324 324 325 326 326 326 324 325 325 325 325 327 326 327 326 327 325 325 325 325 325 326 326 326 327 330 329 332 332 334 336 335 335 334 336 335 338 338 340 339 340 341 340 340 341 339 338 337
309 309 311 311 312 312 312 314 316 316 316 315 313 313 313 313 314 315 315 315 316 316 316 316 315 314 314 313 312 312 314 318 320 320 321 322 323 324 324 325 325 326 325 325 324 325 324 326 328 328 327 327 325 324 325 324 325 325 326 326 326 328 328 329 330 333 333 335 334 335 334 335 335 339 341 341 341 339 341 339 341 340 339 338 337
308 313 314 312 312 312 314 315 316 317 317 316 314 313 312 312 313 314 314 314 314 315 315 315 314 313 313 312 311 312 314 317 319 319 320 320 322 322 323 324 325 326 325 324 325 324 325 326 326 327 325 326 324 324 324 324 325 325 324 324 324 327 327 330 331 333 333 332 333 334 334 334 335 340 339 339 339 338 338 338 339 339 338 338 337
311 312 314 313 314 314 314 314 315 318 317 316 316 314 312 311 312 313 313 313 313 313 314 313 313 312 311 310 311 311 312 315 317 318 318 319 319 320 322 323 324 325 324 324 324 323 324 323 324 326 326 323 322 322 322 324 324 324 324 323 326 326 326 326 329 332 333 331 333 334 334 333 337 338 338 338 339 339 339 338 338 339 338 338 334
312 313 313 315 319 315 314 313 313 313 314 317 315 314 312 310 310 313 313 312 312 312 312 312 311 311 310 309 309 310 309 312 315 316 317 317 318 319 320 322 324 324 324 324 324 323 325 326 326 323 321 321 321 322 322 322 323 323 324 325 326 325 324 325 329 331 334 332 332 333 333 333 336 336 337 338 338 339 338 337 338 338 337 336 334
313 313 311 313 315 316 314 315 314 313 314 313 312 312 312 310 310 312 312 312 311 311 311 311 310 309 308 307 308 308 307 310 313 315 315 315 317 318 318 321 323 323 323 324 323 325 325 325 325 324 320 320 320 321 321 321 321 322 322 324 323 324 325 325 329 331 332 332 332 332 333 333 333 338 336 337 339 338 337 337 337 336 336 337 334
311 311 310 312 312 315 314 315 314 314 314 313 313 313 310 312 311 312 311 312 311 311 311 310 309 309 307 307 307 307 307 308 311 313 313 315 316 316 316 318 321 323 323 323 324 324 324 323 321 320 319 320 319 319 320 320 321 322 321 322 322 323 324 327 329 330 330 331 332 331 331 334 337 337 337 338 339 338 337 336 337 337 336 336 334
311 311 310 313 314 313 315 314 314 313 313 313 313 312 311 310 311 312 310 310 310 311 310 309 308 307 306 306 306 306 305 305 309 312 312 314 315 314 315 317 319 321 322 322 322 322 321 321 320 319 319 319 318 318 319 318 318 320 320 321 322 323 328 328 330 330 330 330 331 331 332 336 337 337 337 338 340 339 338 337 337 338 337 334 333
309 310 311 311 314 312 314 313 314 314 314 313 313 313 313 311 312 310 309 309 309 309 309 308 307 307 305 305 306 305 304 304 308 312 312 314 313 313 314 316 317 319 320 321 321 321 321 321 319 319 318 318 317 318 318 318 319 319 320 320 320 325 327 329 329 330 329 330 331 331 332 335 337 336 337 337 339 336 338 338 336 336 337 336 333
308 308 311 311 310 312 313 313 313 314 313 314 313 312 313 309 310 310 310 309 309 308 309 308 309 308 307 306 306 304 303 303 305 310 312 313 314 313 314 315 316 317 319 320 320 320 321 320 319 318 318 318 317 320 320 317 317 319 320 319 324 326 327 329 330 329 328 329 328 330 332 334 336 337 337 337 337 338 338 337 337 336 335 336 334
306 307 309 309 311 311 312 310 312 314 314 313 313 312 311 310 310 311 311 310 309 310 309 309 308 308 308 307 305 305 305 304 302 307 310 311 313 313 314 315 315 316 317 319 319 318 319 318 318 317 316 316 320 319 319 321 321 320 321 323 324 324 327 329 330 329 328 329 328 329 332 334 335 337 336 336 337 338 338 337 337 337 336 335 334
307 308 309 313 310 310 312 311 312 313 311 310 311 310 310 309 309 310 309 309 310 310 310 310 309 308 308 306 305 306 306 304 305 307 311 315 315 315 315 315 315 316 315 317 317 317 317 317 316 315 314 316 317 317 318 319 320 321 323 322 324 325 327 328 330 329 329 327 328 328 332 333 333 334 335 336 336 337 336 338 337 338 336 334 334
309 308 309 313 313 311 312 312 312 312 312 310 310 309 310 309 310 309 309 308 309 309 309 310 310 309 308 306 307 307 307 305 304 304 310 314 315 315 316 316 316 317 315 316 315 314 315 315 316 315 316 317 317 317 318 318 320 321 321 322 324 326 327 328 329 329 328 328 328 327 330 332 332 330 332 336 337 337 338 338 337 336 336 335 334
307 306 308 310 311 311 312 312 311 311 311 310 310 310 310 308 308 308 308 310 310 309 310 309 309 309 307 307 306 306 306 305 305 304 305 311 314 314 315 315 315 316 316 316 315 315 314 314 315 315 315 317 317 317 318 318 319 319 320 323 324 326 327 328 329 328 328 329 328 324 327 330 333 329 334 335 338 335 337 337 335 336 336 335 333
309 307 310 310 311 311 312 311 309 311 311 311 310 309 309 309 309 308 309 308 309 309 308 308 309 309 308 308 306 305 305 304 304 304 303 307 310 313 313 315 315 315 315 315 315 316 314 314 315 315 316 317 317 318 318 319 320 320 322 324 327 327 327 328 328 328 328 329 326 323 326 329 332 332 332 336 339 337 338 336 336 334 337 335 334
306 308 309 310 310 311 311 311 311 310 312 311 310 309 309 309 309 309 310 308 308 308 308 308 310 308 308 307 306 306 304 304 304 303 303 305 306 310 313 314 314 314 315 316 316 314 314 314 315 315 316 317 317 318 318 319 319 321 323 324 326 326 327 327 327 328 327 329 328 324 326 330 331 332 334 336 335 336 337 336 335 335 336 336 336
306 308 310 310 311 312 311 311 312 311 310 310 309 309 309 309 309 309 308 309 309 308 308 309 309 308 308 308 307 305 305 305 304 304 303 303 305 308 310 312 314 314 314 315 316 315 315 314 314 315 317 317 317 317 319 320 321 322 323 324 326 326 325 326 327 328 328 330 329 327 324 328 329 330 333 334 336 336 335 336 336 336 335 336 336
308 309 310 310 311 310 309 310 311 311 311 310 309 309 309 308 309 309 309 309 309 309 310 308 308 308 308 308 307 306 305 304 304 304 303 303 304 306 307 310 312 313 314 315 316 317 316 315 314 314 315 315 316 316 317 318 318 319 321 322 323 324 325 327 327 328 329 331 332 331 324 327 329 332 335 336 334 335 335 335 335 335 335 334 335
309 309 309 310 310 310 311 311 311 311 311 310 310 309 310 309 309 309 310 310 310 310 309 309 309 308 308 309 308 307 306 306 304 304 304 303 303 304 305 308 310 312 314 315 317 318 318 317 315 314 314 315 316 317 318 318 317 318 318 319 319 321 322 325 327 329 328 331 332 333 330 323 325 331 333 333 334 335 334 334 335 333 333 332 335
307 308 309 310 310 311 311 311 311 312 311 311 310 310 310 310 310 309 309 310 310 309 309 309 308 308 309 309 308 307 306 306 306 305 305 304 303 303 303 305 308 310 313 315 316 318 318 319 318 317 317 316 316 316 316 316 316 316 318 318 318 319 320 323 325 327 328 328 329 331 330 327 322 323 328 332 333 333 333 333 333 333 334 333 334
307 307 308 308 310 311 311 311 311 312 312 311 310 310 309 310 309 310 309 311 310 310 309 308 308 309 309 309 308 307 306 305 305 305 305 304 304 303 302 303 305 308 312 314 316 317 318 317 319 320 320 319 318 319 321 320 316 315 317 317 318 318 318 320 322 323 323 324 325 326 327 329 329 323 322 325 329 334 331 331 332 333 333 333 332
307 307 307 308 309 310 311 312 310 311 311 310 310 308 310 309 309 310 309 309 309 308 308 308 308 308 308 309 309 308 306 305 305 305 305 305 305 304 303 302 303 307 310 312 314 315 315 316 316 319 316 316 314 316 318 319 319 319 319 317 317 317 318 317 318 319 318 318 320 322 325 326 325 325 325 321 321 326 331 331 331 332 332 333 333
304 306 306 310 306 309 310 311 310 311 311 311 311 310 311 310 309 309 309 310 309 309 308 308 308 308 308 308 308 307 307 306 305 304 305 305 304 303 302 302 303 306 306 309 312 314 315 315 314 315 317 316 316 315 318 319 318 319 320 322 319 318 318 318 318 318 317 317 317 318 321 321 319 319 319 322 320 319 320 322 325 327 329 331 331
303 306 307 306 307 308 308 310 310 311 311 310 311 310 310 310 309 308 309 311 309 308 308 307 307 307 307 308 308 308 308 307 305 305 304 305 304 304 303 303 304 304 305 306 308 309 312 315 315 314 314 315 316 316 318 318 318 318 320 321 320 319 319 319 318 318 318 319 317 318 318 318 318 318 317 321 322 320 317 318 321 322 322 323 324
303 304 305 306 307 308 307 310 309 310 309 309 309 310 309 310 310 310 310 310 308 307 307 307 308 307 307 307 307 308 308 307 306 305 304 305 304 304 304 304 304 304 304 304 304 306 307 312 314 314 314 313 314 314 316 316 317 319 321 320 321 321 321 320 318 317 320 319 317 317 318 318 317 315 321 321 322 321 317 315 316 317 317 317 319
303 303 305 307 307 308 308 309 309 310 310 309 310 310 310 310 310 309 308 308 308 307 307 307 306 306 307 306 307 308 307 308 307 305 305 305 305 305 305 304 304 304 303 303 303 305 305 306 306 311 313 312 310 310 312 315 317 317 319 320 321 321 321 321 321 317 320 319 318 318 317 318 320 320 320 318 317 317 316 315 315 316 315 314 316
302 303 305 305 306 307 307 308 308 308 308 308 309 310 309 310 309 309 309 309 308 307 307 306 306 306 306 306 306 307 306 307 307 306 306 305 305 304 304 304 305 304 304 302 302 303 304 306 304 306 311 310 307 307 310 313 315 316 316 317 319 320 320 320 320 321 320 319 316 315 317 317 318 318 318 317 316 315 314 314 315 315 316 314 314
304 304 305 306 306 306 307 307 307 306 307 308 308 308 308 308 307 308 308 307 307 306 306 306 306 305 305 305 306 306 306 306 307 307 307 305 305 304 304 304 304 304 303 302 301 301 303 304 304 304 307 308 305 306 306 311 309 313 313 315 316 316 318 318 318 318 317 318 316 315 314 314 315 315 315 315 316 316 315 315 313 314 315 314 313
304 305 305 306 307 307 307 307 307 306 308 308 308 308 308 307 307 307 306 306 305 307 306 306 305 305 305 305 305 304 306 306 306 306 306 305 305 305 305 304 304 304 303 302 303 302 303 304 304 304 303 305 302 305 303 308 306 308 313 314 314 314 314 316 317 313 312 314 314 315 315 315 315 314 314 313 314 313 313 314 315 315 315 316 315
304 305 306 306 307 307 308 307 307 307 308 308 309 308 308 308 307 306 306 305 305 305 304 304 305 305 305 305 304 305 305 305 305 306 306 305 305 305 305 304 303 303 303 303 303 302 302 303 303 302 304 302 301 303 303 305 302 303 304 308 309 312 313 315 312 309 311 312 312 313 314 314 314 313 313 313 314 314 314 314 315 314 314 314 314
306 306 306 307 307 307 307 307 307 308 308 307 309 308 307 307 307 306 306 304 304 305 304 305 305 305 305 304 304 304 304 304 305 305 305 305 304 304 304 304 304 303 303 303 303 302 301 301 302 300 302 303 302 304 303 305 301 305 305 308 302 307 310 311 309 307 309 309 311 312 312 312 312 312 312 312 313 313 314 313 313 313 313 313 313
306 306 305 307 307 307 307 307 307 307 308 306 307 308 307 307 307 306 305 306 304 304 306 306 305 305 303 304 303 304 304 304 304 304 304 304 304 304 304 304 304 304 303 303 302 301 301 301 302 301 302 301 301 300 302 305 304 305 300 300 300 304 303 301 300 306 308 309 309 310 309 307 309 310 310 308 308 309 311 313 313 313 313 312 312
307 306 306 305 306 306 306 307 307 307 306 305 306 306 306 305 304 304 305 305 306 306 306 304 304 303 303 302 302 303 303 303 303 303 303 303 303 304 304 304 303 303 304 303 302 302 302 301 301 301 301 300 300 301 301 302 303 304 303 301 300 300 298 300 301 303 305 305 307 306 307 305 306 304 304 305 307 308 308 308 308 308 309 309 309
305 304 303 303 305 306 306 306 306 306 305 305 306 307 307 306 305 305 304 304 303 303 301 301 301 301 301 302 302 302 302 302 302 303 303 303 303 303 303 303 303 303 303 303 303 302 302 301 301 301 300 301 300 301 300 301 301 301 303 304 303 298 297 299 300 297 303 305 307 307 305 305 304 303 304 304 305 305 305 306 306 306 306 307 308
304 303 303 303 304 305 305 306 305 304 305 305 306 307 306 306 307 306 306 304 301 300 301 301 301 301 302 301 301 301 301 301 301 302 302 302 302 302 303 303 302 302 302 302 301 301 301 301 301 301 300 300 301 299 299 299 301 300 301 301 300 300 301 298 295 298 298 302 304 304 304 304 303 303 303 303 303 304 304 304 305 305 306 306 306
303 303 304 304 304 304 304 304 304 303 304 305 305 307 306 305 305 304 303 302 302 300 300 300 301 301 300 300 300 300 300 300 300 301 301 301 301 301 302 302 301 301 301 301 300 300 301 301 301 301 301 300 299 299 299 299 297 298 300 299 299 301 300 302 302 299 297 296 299 303 304 303 302 302 302 302 302 303 303 303 304 304 304 304 305
303 304 304 303 303 303 303 303 302 303 303 303 304 304 305 305 304 303 301 301 300 300 300 300 300 300 299 300 299 299 299 299 300 300 300 300 300 300 301 300 300 300 300 300 300 300 299 299 299 299 299 299 299 299 299 298 298 297 298 299 299 299 299 300 301 299 295 294 295 297 298 301 301 302 301 302 302 302 302 302 302 303 303 304 305
301 302 302 302 302 302 302 301 301 301 302 302 302 302 303 303 303 302 300 299 299 300 300 299 299 299 298 298 299 298 298 298 298 299 299 299 299 300 299 299 299 299 299 299 299 299 299 299 299 299 299 299 299 299 298 298 299 299 298 298 298 298 298 298 298 297 297 297 294 295 296 296 295 298 301 301 301 301 301 302 302 303 303 303 304
301 301 301 301 302 301 301 300 300 300 301 301 301 301 301 301 301 301 300 299 300 299 298 298 298 298 298 297 297 297 298 297 298 298 298 298 298 298 298 298 298 298 298 298 298 298 298 299 299 299 298 298 298 298 298 298 298 298 298 297 296 296 296 295 295 295 295 294 294 295 296 297 295 296 299 300 299 300 301 301 301 302 302 302 303
Wind_Speed
4 4 1 2 4 4 4 6 7 5 6 6 7 7 8 9 9 10 10 10 11 11 11 11 12 12 13 13 14 14 14 15 16 16 16 17 19 20 19 20 20 21 20 19 20 20 20 20 20 20 19 19 19 19 20 20 19 19 17 16 16 15 15 15 15 15 14 17 17 15 15 21 22 20 17 16 15 16 14 15 14 10 9 10 14
5 1 1 2 3 4 5 7 7 6 5 6 6 7 8 8 9 10 10 10 10 11 11 11 11 12 13 13 13 14 14 15 15 16 16 18 19 20 20 20 20 20 20 20 19 20 20 21 20 21 20 20 20 19 19 19 18 17 17 15 14 17 16 17 15 16 14 16 15 17 15 16 19 18 17 15 14 15 11 14 12 10 7 15 14
1 1 2 1 2 4 5 6 7 6 6 6 6 7 8 8 9 10 10 10 10 10 11 11 12 12 13 13 13 13 14 15 15 16 16 19 19 20 20 20 21 21 21 21 21 21 21 20 21 20 20 20 19 19 19 19 19 16 16 16 15 15 16 17 19 16 15 16 17 17 15 18 16 18 16 18 18 18 13 14 11 11 10 17 15
1 1 1 2 3 3 5 6 6 6 6 6 6 7 8 8 9 10 10 10 10 10 11 11 12 12 12 13 13 13 13 14 15 16 17 18 19 20 20 21 22 22 22 21 21 22 21 21 19 19 19 20 20 19 18 18 18 19 16 16 15 14 16 18 19 15 17 14 14 15 8 9 12 18 18 19 18 16 10 14 14 13 17 17 18
3 1 1 1 2 2 4 5 5 6 6 6 6 7 7 9 9 10 10 11 11 11 11 11 12 12 12 13 13 13 14 14 15 16 17 18 18 19 20 20 21 22 22 22 21 21 21 21 20 20 19 19 19 19 18 17 16 17 17 18 16 14 15 18 17 16 14 14 17 13 5 8 2 12 19 20 16 15 13 14 13 17 18 19 19
3 2 2 2 1 1 3 5 5 6 5 6 6 7 7 8 9 10 10 10 10 11 11 11 12 12 13 12 13 13 14 15 15 16 17 18 19 18 19 20 20 21 22 22 22 21 21 21 20 19 19 19 18 18 18 17 17 16 16 17 15 14 15 17 16 16 13 17 17 8 7 6 6 7 19 19 20 15 11 10 12 17 19 19 18
3 1 2 2 2 1 4 4 5 6 5 5 6 7 7 8 8 9 9 10 10 11 11 11 12 12 12 13 13 14 14 15 16 16 17 17 18 19 19 19 20 21 21 22 21 21 21 20 19 18 18 20 18 17 16 16 17 16 16 16 16 14 14 15 16 16 14 14 7 9 7 7 8 5 16 21 17 15 12 14 15 16 17 17 18
3 2 3 3 2 1 4 4 5 5 5 5 5 6 7 7 8 8 9 9 10 10 11 11 12 12 12 13 13 14 14 16 16 17 17 18 18 18 19 20 20 20 21 21 22 21 21 19 18 16 18 20 19 17 16 17 17 17 17 16 16 15 14 14 15 16 15 10 7 6 7 7 7 7 12 18 17 17 17 17 16 15 16 17 12
4 4 4 3 3 4 4 5 5 4 5 5 5 5 6 7 7 8 8 9 10 10 11 11 12 12 12 13 13 14 15 16 16 16 17 17 18 19 19 19 20 20 21 21 20 20 18 18 18 18 17 18 19 17 15 15 16 15 16 16 15 15 12 14 15 18 11 8 8 4 7 5 8 4 11 18 20 20 16 13 11 12 15 12 12
4 3 3 3 3 4 5 5 5 3 4 4 4 5 6 7 7 8 8 9 10 10 11 11 12 12 12 13 14 14 15 15 16 16 17 17 18 19 20 20 21 21 21 23 24 21 19 19 18 18 17 18 17 17 16 15 16 15 15 15 15 14 13 14 16 15 9 7 6 6 7 6 6 4 11 19 20 18 17 15 8 9 9 9 8
3 3 3 4 4 4 6 7 6 4 3 3 4 5 6 7 7 8 8 9 10 11 11 11 12 12 13 13 14 15 15 15 16 16 17 17 18 19 20 20 21 22 22 22 21 21 21 21 20 19 17 17 19 17 16 16 16 15 15 15 14 14 13 11 11 7 8 6 7 4 7 11 5 4 12 21 20 17 15 11 11 10 11 10 13
4 3 3 3 1 5 7 8 7 6 4 4 3 4 6 6 7 8 8 9 10 11 11 11 12 12 13 14 14 15 16 15 15 16 16 17 17 19 20 20 21 22 23 23 21 20 21 21 19 19 18 17 18 19 18 15 15 15 15 14 13 13 10 8 7 5 6 6 8 6 6 7 7 7 9 17 16 16 15 12 14 15 15 13 13
3 3 3 3 4 4 6 8 8 7 6 4 4 4 5 7 8 8 9 9 10 10 11 12 12 12 13 14 15 15 16 15 15 15 16 16 18 19 20 21 22 23 21 22 21 20 20 20 18 18 18 20 19 18 19 18 14 14 13 12 11 12 6 6 7 6 6 7 9 8 6 5 7 12 11 13 15 16 14 16 16 16 15 13 12
3 3 3 3 3 3 7 8 9 8 7 5 4 4 5 7 7 8 9 10 10 10 11 11 12 13 13 14 15 15 16 15 15 15 15 16 17 18 19 20 22 23 21 21 21 20 20 18 19 19 18 20 20 16 17 16 15 14 12 11 10 7 4 6 7 6 6 7 4 8 7 4 6 17 17 17 17 16 17 15 15 14 13 13 11
4 4 3 4 4 4 5 8 8 9 8 6 4 5 6 6 8 8 9 10 10 10 11 11 12 13 13 14 15 16 16 15 14 15 15 16 16 17 18 20 21 22 22 21 20 21 20 19 19 19 21 18 17 14 14 14 15 14 12 10 9 3 3 5 6 5 4 6 6 5 6 5 10 14 14 16 16 15 14 14 14 14 13 13 12
5 5 4 5 4 4 4 6 8 8 6 5 4 5 6 6 7 8 9 9 10 10 10 11 12 12 13 14 15 16 16 15 14 15 15 15 15 16 18 19 21 21 22 22 21 20 20 20 20 17 16 16 16 14 14 13 13 12 12 10 3 1 2 4 5 6 1 3 5 7 6 5 13 13 13 15 16 16 15 14 15 15 14 13 9
5 5 6 6 4 4 4 4 4 5 6 4 2 4 5 5 6 7 9 9 9 10 10 11 12 12 12 13 14 15 16 15 14 15 15 15 15 16 17 19 20 21 22 22 21 20 20 20 18 18 16 15 15 14 14 13 10 9 10 4 3 1 2 3 4 5 2 7 7 6 6 5 11 11 13 13 14 16 16 16 16 15 13 12 11
5 5 6 5 4 3 3 3 3 4 4 3 3 2 3 3 5 7 8 8 8 9 9 10 11 11 11 12 13 14 14 14 13 14 14 15 16 15 16 17 20 21 21 22 21 20 20 19 18 17 15 13 13 12 11 10 9 8 7 4 3 2 1 2 3 4 3 7 8 6 5 8 16 16 15 15 11 11 14 15 14 14 12 13 13
5 5 5 5 5 3 3 3 3 3 3 3 2 2 1 3 4 6 7 7 8 8 8 9 9 9 10 10 11 12 12 12 12 14 13 15 15 15 16 17 18 19 20 21 21 21 21 20 18 16 13 11 10 9 6 5 5 5 5 4 2 2 3 1 2 4 5 7 6 7 7 16 17 17 16 15 15 13 14 14 14 14 13 14 12
4 5 5 4 3 4 3 3 2 2 2 2 2 2 1 1 3 4 6 6 6 7 6 7 7 6 8 8 10 8 8 8 11 10 13 14 14 14 16 17 18 17 19 21 20 20 20 18 16 13 12 10 8 7 5 2 3 4 1 4 1 6 5 1 1 2 4 5 6 6 10 18 16 15 15 16 18 16 16 13 14 14 12 11 13
4 5 4 3 3 4 4 3 2 2 2 2 2 1 0 1 2 2 5 4 4 5 5 5 5 4 6 7 8 6 7 7 7 9 11 10 13 13 15 16 17 16 18 18 18 20 19 16 14 11 10 6 5 7 7 6 6 3 5 3 4 7 3 1 2 1 3 4 5 6 12 15 13 15 15 14 15 14 11 7 2 6 12 12 10
3 3 3 2 4 4 3 3 2 2 1 1 1 1 1 2 2 3 3 4 3 4 3 4 4 5 5 5 5 6 6 6 7 8 7 10 10 13 14 15 16 14 17 18 17 18 18 16 14 11 8 8 6 2 2 5 3 5 3 3 5 3 2 1 2 3 3 3 3 4 12 13 11 13 13 12 15 16 14 11 12 10 10 13 13
4 3 2 2 2 3 2 3 3 0 1 1 1 1 1 2 2 2 2 2 3 3 4 3 4 4 4 5 5 6 6 5 6 6 7 10 9 11 12 13 15 14 15 16 15 16 17 15 12 10 7 5 4 2 1 1 1 1 4 3 1 1 1 1 2 4 5 4 1 7 10 10 8 13 11 11 12 15 16 15 15 14 10 14 13
4 2 3 1 3 3 2 2 2 0 2 1 1 1 1 1 2 2 2 2 3 3 2 3 2 3 4 4 5 5 5 5 6 6 7 7 8 9 10 11 11 11 13 11 12 13 14 13 11 8 3 4 3 3 2 1 1 2 1 1 1 0 1 1 1 4 6 4 3 3 9 10 8 7 9 9 11 9 14 14 13 12 8 10 12
1 3 3 4 2 2 2 2 1 1 2 2 1 0 1 2 2 2 2 2 3 3 3 2 2 3 4 4 5 5 5 5 5 6 6 7 7 8 9 8 9 10 10 10 9 9 10 8 7 4 4 4 4 4 3 3 1 1 1 2 1 1 0 1 2 4 6 5 5 4 8 10 10 13 11 9 9 14 14 12 12 10 6 9 12
3 4 5 3 1 0 1 1 2 2 2 1 1 1 1 2 2 2 3 2 2 3 3 3 3 3 4 4 5 5 6 5 6 6 7 6 7 8 8 8 9 9 9 10 9 7 9 7 7 3 3 4 3 3 2 2 3 3 3 3 2 2 2 2 2 3 5 6 7 7 2 4 9 14 13 12 11 13 13 12 12 11 11 11 11
2 4 3 3 2 2 2 2 3 2 2 1 1 1 1 1 1 2 3 3 3 3 3 3 3 3 3 4 5 5 5 6 6 6 7 6 7 7 8 8 9 9 9 10 10 6 8 6 7 4 4 4 4 3 2 3 3 4 2 4 3 3 1 1 1 3 5 6 6 9 9 8 8 12 13 12 11 12 12 13 10 12 12 9 10
4 5 4 3 2 2 2 2 3 3 2 2 2 2 1 1 1 1 2 2 3 3 3 3 4 3 2 3 4 4 5 6 6 6 6 6 7 7 7 8 8 8 8 8 9 7 7 6 6 6 3 3 4 4 4 4 4 2 3 4 3 3 3 1 3 4 6 6 9 7 7 8 6 9 10 9 11 12 12 10 11 13 13 10 11
6 5 3 2 2 1 2 3 3 3 2 2 2 1 1 1 1 1 2 2 2 2 3 3 3 3 2 2 3 4 5 5 6 6 6 6 6 7 7 7 8 8 8 7 8 8 8 7 6 6 6 5 4 4 4 5 5 5 4 3 3 5 4 2 4 5 5 5 4 7 10 7 7 9 12 12 11 11 13 14 14 13 13 15 13
6 4 3 2 0 1 2 3 3 2 2 2 2 1 1 1 1 2 2 2 2 2 2 3 3 3 2 1 2 3 3 4 5 6 6 6 6 7 7 7 7 8 8 8 8 8 9 8 7 7 6 6 4 3 3 4 4 6 6 5 5 5 5 3 4 5 5 5 5 6 9 9 8 10 12 10 10 10 8 8 9 12 13 13 13
2 4 3 1 1 1 2 2 2 3 3 3 2 1 1 1 1 2 2 2 2 2 2 2 2 2 2 1 2 2 3 3 4 5 5 6 6 6 7 7 7 8 8 8 7 8 8 7 6 6 5 6 5 5 6 5 5 6 7 7 6 5 5 4 5 6 6 5 6 7 7 8 6 7 8 9 9 9 10 11 12 10 11 11 7
3 3 1 1 0 1 1 2 3 3 3 3 2 2 1 1 1 2 2 2 2 3 3 2 2 2 2 2 2 2 3 3 3 4 5 5 6 6 6 7 7 7 7 8 7 7 8 6 4 4 7 6 6 5 4 5 7 7 7 7 6 6 6 5 5 5 6 5 5 5 3 5 8 9 8 7 5 6 7 9 8 7 6 5 5
2 2 0 1 1 1 1 2 2 3 3 3 2 1 1 1 1 1 1 1 2 2 3 2 2 2 2 2 2 2 2 3 3 4 5 5 5 5 6 7 7 7 7 8 8 7 7 7 8 8 7 7 7 8 7 7 6 6 7 7 6 6 6 6 5 5 5 5 5 5 4 5 4 7 9 8 7 5 6 5 5 5 6 5 3
1 1 1 1 1 1 1 1 2 3 3 2 2 1 1 1 1 1 1 2 1 2 2 2 2 2 2 2 2 2 2 2 3 4 4 5 5 5 6 6 6 7 7 7 7 7 7 8 8 7 7 6 6 6 7 8 7 5 6 5 5 5 5 6 5 5 5 6 5 5 5 5 5 5 5 9 12 13 11 7 4 1 2 4 7
2 2 3 2 0 1 1 1 2 2 3 2 2 1 1 1 1 1 1 1 1 1 2 2 2 2 2 2 3 3 2 2 2 3 3 4 5 5 6 5 6 6 6 7 7 7 7 7 8 7 6 6 5 4 5 8 6 7 6 5 4 4 5 5 4 4 4 4 4 5 5 4 5 5 6 5 7 10 12 14 15 16 16 13 7
5 3 2 1 2 2 2 2 3 3 2 2 2 1 1 1 1 1 1 0 1 1 2 2 2 2 2 2 3 3 3 2 2 2 3 4 4 5 5 5 6 5 5 6 6 7 7 6 7 7 7 7 7 6 4 4 4 3 4 5 3 2 3 3 4 3 3 3 3 3 3 3 3 3 3 3 3 4 8 10 11 12 13 13 14
3 4 3 3 3 3 3 3 3 2 2 2 2 2 1 1 1 0 0 0 1 2 3 2 2 3 3 3 4 3 3 2 2 2 2 3 3 4 4 5 5 4 5 5 6 6 6 6 6 7 7 7 7 8 7 5 4 2 3 3 3 2 2 1 2 2 1 2 2 1 2 2 2 2 3 3 3 3 6 9 9 8 8 9 11
3 3 3 3 4 3 3 2 2 1 1 1 2 1 1 1 1 1 1 2 2 2 3 3 4 4 4 4 4 3 3 3 2 2 2 1 2 3 4 5 5 4 4 4 5 6 6 6 7 6 7 7 7 8 7 5 4 3 2 3 3 2 2 2 2 1 1 1 2 2 2 0 1 2 2 2 3 3 3 5 7 6 4 5 7
3 4 3 3 2 3 3 3 2 1 2 1 1 2 2 1 1 2 3 2 3 4 3 4 4 4 4 4 4 3 4 3 3 2 2 2 2 2 3 5 5 5 5 5 5 6 6 6 6 6 5 6 7 7 7 5 4 2 2 2 2 3 2 2 2 2 2 2 2 2 2 3 3 3 3 3 2 2 2 2 2 3 4 4 4
3 3 4 3 3 3 3 3 2 1 1 2 2 2 2 2 3 3 4 3 3 4 5 4 4 4 4 5 5 4 4 4 4 3 2 2 2 2 3 3 5 5 5 6 6 6 7 6 6 6 6 5 8 8 8 6 4 2 3 2 2 2 3 3 3 3 2 1 1 1 2 2 3 4 3 3 3 3 3 3 1 1 2 4 5
4 5 5 4 3 2 3 3 2 1 1 2 2 2 2 3 2 2 3 3 4 4 5 5 5 5 5 5 5 5 5 5 5 4 4 3 2 2 2 3 3 4 5 5 5 6 6 6 4 4 6 6 8 9 9 7 5 1 2 3 3 3 3 2 2 4 4 2 2 2 2 3 3 3 4 4 4 3 3 3 3 3 4 4 4
4 4 4 3 3 2 2 3 2 2 1 0 1 1 1 2 1 3 3 3 3 3 4 4 4 4 5 6 5 6 6 6 6 5 5 4 4 3 3 3 4 3 3 3 6 6 7 7 7 4 4 5 6 8 8 8 5 5 4 1 3 4 3 3 3 8 6 4 3 2 3 3 4 3 3 2 2 2 2 2 2 2 3 4 5
4 3 3 3 3 3 3 2 2 1 2 1 0 1 1 1 1 3 2 5 4 4 4 4 4 5 6 6 6 6 7 6 7 6 4 5 5 4 4 3 3 3 3 3 5 6 6 7 7 7 5 4 5 5 8 8 6 4 2 3 3 1 4 3 2 5 4 6 4 5 3 2 1 1 2 3 3 3 2 3 3 4 4 4 4
3 3 3 3 2 2 2 2 3 2 2 2 2 2 2 2 2 2 3 3 4 4 4 5 5 6 7 7 7 7 7 6 7 6 5 5 5 5 4 4 4 4 3 4 5 5 5 6 6 6 6 5 6 7 7 8 7 6 3 4 3 4 2 4 8 3 2 5 5 6 5 5 5 4 2 4 4 4 3 2 3 3 4 4 4
3 3 2 1 1 2 3 3 3 3 2 2 2 2 3 3 4 4 5 5 3 3 3 5 5 6 6 7 7 7 7 7 7 8 6 6 6 5 5 5 5 5 4 4 5 5 5 5 5 5 7 6 5 5 6 7 9 7 4 1 1 0 4 5 8 2 2 4 5 5 5 6 6 7 6 6 6 5 5 6 6 6 7 7 6
3 2 1 1 2 3 4 4 4 3 3 2 1 1 2 4 6 5 5 4 4 3 4 4 5 5 6 5 7 8 7 7 8 8 8 7 7 7 6 6 6 5 5 5 5 5 7 6 6 5 5 6 5 5 5 5 6 8 7 5 3 3 4 5 5 1 5 3 1 2 6 5 5 7 6 5 5 6 6 6 7 7 7 7 6
3 2 2 3 4 4 4 4 4 4 3 3 1 3 4 4 4 4 4 4 6 5 4 4 4 5 5 6 6 8 8 8 8 8 8 8 7 8 7 7 7 6 6 6 6 7 6 6 5 6 5 5 6 5 6 6 1 6 5 6 6 4 3 4 3 5 2 1 2 4 4 3 6 7 5 5 6 6 6 6 7 7 7 6 6
3 3 4 4 5 5 5 5 4 4 4 3 3 3 5 5 6 6 6 6 6 6 5 5 5 5 6 6 6 7 8 8 8 9 9 8 8 8 8 8 8 8 7 7 7 7 6 6 7 7 5 6 7 5 5 5 5 5 4 4 3 2 3 2 3 3 4 6 5 2 2 3 7 5 3 5 6 6 8 8 8 8 7 7 6
4 5 5 4 5 5 5 6 6 6 5 5 5 5 4 5 6 6 8 6 6 6 5 5 5 5 7 6 7 7 7 9 9 9 9 9 8 8 9 9 9 8 7 7 7 8 9 8 9 8 8 7 7 7 5 5 5 5 5 5 3 4 3 4 2 3 4 6 6 4 7 6 5 2 4 5 5 7 8 8 8 8 7 6 6
5 5 6 5 5 5 6 8 7 6 5 6 7 7 6 6 7 7 9 7 6 5 5 5 5 5 7 7 6 7 6 7 8 9 9 9 9 9 9 10 9 8 8 8 8 9 9 9 9 9 9 8 7 7 7 6 5 6 6 5 5 5 2 2 3 6 4 2 6 10 9 10 8 6 5 5 8 8 6 7 7 7 6 7 6
5 6 5 5 5 6 7 9 7 6 6 7 7 8 6 6 7 7 8 9 7 6 6 6 5 5 7 7 7 6 6 6 7 7 9 8 9 9 9 9 9 9 9 9 9 8 8 8 8 10 11 10 8 8 8 8 6 7 8 7 7 6 5 5 6 6 5 5 6 7 9 9 10 10 6 9 9 8 8 8 8 8 8 8 7
Wind_Direction
184 233 221 200 263 296 324 336 340 334 338 341 344 344 346 346 341 335 337 335 332 329 329 328 330 330 330 329 329 328 329 325 323 323 321 315 315 316 318 319 319 320 317 313 310 308 308 309 311 310 308 305 303 304 302 299 300 301 302 303 308 307 300 295 276 259 244 236 228 226 212 227 231 211 214 212 193 175 163 151 148 150 150 137 142
116 161 228 206 256 279 316 340 344 340 344 341 345 347 344 345 339 336 337 337 331 329 328 329 330 329 330 330 331 330 328 324 322 322 321 312 316 318 318 319 321 318 316 316 314 313 314 311 309 309 307 306 306 306 304 300 299 300 298 301 309 305 301 296 284 256 244 237 234 230 219 227 234 215 212 215 194 166 168 152 153 151 140 143 139
87 178 133 203 249 278 319 342 339 345 340 343 349 349 345 343 339 340 340 334 334 331 331 331 330 331 332 332 331 329 326 325 324 322 318 315 318 319 321 321 322 322 322 323 323 318 315 314 315 311 310 309 308 307 306 304 300 296 299 301 308 304 305 292 293 258 243 236 231 236 220 215 220 223 213 207 191 170 167 155 160 158 141 140 129
173 137 150 143 252 276 320 336 338 340 341 349 354 348 349 343 343 344 339 337 335 335 334 331 333 333 333 332 330 328 326 326 324 325 323 320 319 319 320 321 321 321 319 320 318 317 312 312 312 309 307 307 307 307 305 303 303 297 294 301 304 303 302 297 295 274 251 239 245 238 224 210 219 223 218 205 182 161 183 161 161 155 144 135 139
234 196 178 198 215 265 300 326 341 341 352 357 353 353 350 346 347 343 341 338 337 336 334 335 333 334 334 333 331 330 329 328 327 325 322 320 320 321 319 319 320 320 318 318 315 314 313 313 312 309 305 306 305 304 304 302 302 303 299 296 303 302 297 295 303 292 254 240 233 240 200 220 201 231 209 196 190 154 169 166 161 148 144 142 142
202 190 208 221 217 267 293 322 344 355 357 1 356 357 352 348 345 342 339 338 336 335 335 334 335 335 333 332 332 332 332 331 329 327 325 323 322 322 320 320 320 318 317 316 313 310 310 307 306 304 301 299 301 300 300 300 299 300 301 304 310 306 298 299 306 299 251 242 218 214 206 200 168 227 217 187 174 156 162 152 164 151 145 141 148
191 166 218 214 227 231 288 315 327 2 4 360 2 0 353 349 343 338 336 335 335 334 336 336 335 333 333 332 333 334 334 332 331 330 327 323 324 324 323 323 321 318 317 314 312 312 309 306 303 303 301 296 295 298 299 298 294 296 299 300 302 303 301 301 308 299 268 246 234 204 185 192 186 220 224 173 170 154 149 169 169 155 148 151 143
194 204 214 214 218 208 252 291 300 1 3 2 2 357 351 345 339 334 333 333 335 336 336 335 333 334 334 335 335 334 334 333 333 330 327 325 325 326 325 323 322 321 320 320 316 314 309 305 302 301 301 297 296 295 294 296 297 297 297 299 300 301 302 306 311 303 267 258 248 206 174 178 192 193 219 171 167 152 169 166 161 149 153 143 137
202 198 207 212 207 225 255 268 287 344 359 3 357 350 347 341 335 330 329 331 332 335 336 335 334 335 336 335 334 335 334 335 333 330 329 327 328 326 324 324 323 320 320 319 317 311 305 301 304 306 298 294 295 291 291 293 295 298 295 296 298 304 309 306 308 307 265 237 238 180 168 184 175 159 207 181 169 160 154 150 150 164 148 141 134
194 185 208 210 212 199 238 258 266 307 344 352 349 344 341 336 332 327 329 329 331 334 336 336 337 336 337 336 337 336 335 334 333 330 330 329 327 325 325 323 322 321 321 319 319 313 306 305 302 299 298 296 292 292 289 286 290 294 293 295 294 303 304 305 306 301 263 240 254 177 167 183 170 156 197 175 162 159 156 155 168 182 147 143 150
188 202 198 225 231 223 244 249 261 285 310 330 331 334 335 332 330 328 327 329 332 334 336 338 339 339 338 339 339 337 335 334 331 331 331 329 328 328 324 322 322 319 320 318 316 310 308 307 305 302 297 293 294 292 287 288 286 288 288 290 291 298 303 306 304 294 279 215 220 182 166 178 149 174 196 171 161 163 162 162 201 159 139 150 140
197 206 226 239 224 236 245 251 259 266 279 301 315 323 329 329 330 328 327 329 333 336 338 341 342 341 341 342 340 338 335 333 330 332 332 331 328 326 326 325 323 321 322 321 318 313 311 305 303 302 301 298 293 290 285 281 281 283 283 285 286 294 307 308 304 301 268 209 221 177 174 177 156 183 189 163 160 167 170 163 163 146 153 149 151
213 225 231 239 241 228 243 253 255 258 271 283 296 313 326 330 332 330 328 331 334 337 342 345 345 343 344 344 342 338 336 334 332 334 334 330 330 329 328 327 325 322 322 322 320 317 316 316 312 306 305 302 294 285 280 279 277 277 277 279 285 294 313 305 283 292 259 212 217 189 149 189 161 166 194 181 180 179 171 173 162 157 159 157 159
225 227 235 246 250 241 248 252 252 258 264 276 293 309 323 333 331 331 330 332 336 341 344 347 348 346 347 346 343 340 337 334 333 332 331 330 328 327 327 326 325 323 327 325 321 320 321 317 313 310 306 301 296 289 277 273 274 269 269 275 278 303 339 299 290 275 266 209 203 183 153 175 172 183 188 180 191 187 173 180 162 158 155 155 161
258 264 277 265 257 246 228 244 250 254 261 274 294 312 323 331 332 330 331 333 338 342 346 349 349 349 349 348 346 341 338 335 333 331 329 328 326 327 325 325 326 325 327 326 323 321 321 319 316 318 309 297 294 298 284 274 274 273 267 265 277 302 329 300 295 286 235 199 201 177 162 168 188 189 174 182 181 179 175 170 168 162 167 158 166
261 281 282 268 258 252 234 220 239 251 260 277 297 315 320 331 332 329 331 333 340 343 347 351 351 351 351 349 346 342 338 335 332 330 328 326 326 326 328 330 327 329 329 330 327 325 323 323 322 318 314 303 295 295 289 280 274 270 264 262 270 243 272 302 297 311 241 156 164 166 174 174 183 174 174 178 177 174 171 174 171 168 170 171 166
268 269 271 270 254 258 238 236 228 233 252 264 309 311 312 329 329 327 328 333 340 344 350 351 351 351 351 349 345 341 337 335 332 328 325 324 326 329 331 333 330 333 331 330 331 332 330 331 332 323 316 308 298 293 289 282 276 259 251 251 130 163 272 301 296 311 224 183 170 167 170 177 167 181 187 182 179 173 177 176 172 171 171 168 168
246 251 261 269 269 263 258 248 228 224 235 207 212 235 292 320 332 325 326 331 341 346 350 350 350 351 350 348 343 338 336 336 333 326 323 326 327 332 329 331 331 333 333 333 336 334 334 333 331 329 318 321 316 308 292 277 254 240 241 163 132 152 222 272 313 315 243 181 164 160 173 172 174 196 190 184 164 171 188 177 181 175 172 168 173
239 244 259 265 272 266 253 246 223 235 229 251 263 183 224 323 336 323 325 329 339 345 349 348 345 347 342 341 334 330 329 332 331 325 327 327 327 330 331 330 332 330 333 338 339 337 336 334 335 335 338 338 325 314 312 308 253 217 176 145 133 187 191 160 355 290 228 192 156 168 171 179 190 191 192 183 162 185 180 183 177 172 172 175 163
242 251 259 250 262 263 263 246 234 230 240 264 251 273 144 349 331 314 319 324 331 339 344 339 333 333 332 325 323 319 335 336 333 328 333 324 327 326 324 328 333 334 335 337 342 337 338 346 347 345 0 358 351 18 35 63 185 111 116 59 326 235 210 127 358 267 205 200 166 163 191 171 177 190 192 184 172 181 186 178 175 169 174 171 171
227 238 245 251 237 255 251 253 233 227 238 244 268 258 90 276 236 268 285 297 318 327 327 313 326 330 330 324 304 342 344 342 340 341 329 331 323 323 322 331 338 339 339 340 345 341 342 350 350 6 7 18 29 69 49 50 69 50 49 29 286 242 192 143 80 154 189 193 169 145 195 154 182 191 190 186 163 185 167 182 119 167 179 175 175
242 244 212 226 249 242 241 249 244 192 220 219 221 227 224 220 306 304 315 324 325 324 322 338 326 340 324 313 340 353 348 343 348 340 330 333 328 319 316 332 337 335 343 341 346 349 347 352 360 3 2 15 335 42 104 72 326 37 22 306 244 212 188 178 113 133 171 172 169 161 185 180 167 175 186 185 174 175 169 168 160 198 217 181 165
249 244 224 181 236 273 252 248 254 154 190 217 210 235 236 303 292 279 279 267 319 305 331 331 342 335 329 327 347 360 340 335 350 323 308 305 318 314 316 323 328 329 343 342 351 349 350 353 0 357 340 357 347 14 68 69 347 192 226 222 239 250 301 277 109 145 163 146 252 168 199 187 187 176 189 191 181 181 174 170 170 203 223 185 175
250 285 289 285 265 261 263 259 282 213 254 261 243 245 301 311 308 313 319 326 327 325 316 321 330 333 326 332 349 345 331 337 335 318 309 342 343 337 331 327 326 328 345 343 352 348 353 351 357 323 304 20 357 1 38 40 286 18 335 259 245 207 252 260 168 146 139 144 118 144 213 185 195 197 203 207 196 187 176 174 179 191 215 206 182
358 306 271 263 266 262 250 228 204 222 234 238 229 299 347 295 311 316 329 322 328 327 326 319 324 332 331 334 330 330 330 341 352 351 350 347 347 347 345 348 346 344 349 351 1 352 358 357 351 2 35 15 10 8 6 359 319 325 330 314 346 348 329 272 221 144 132 110 82 117 191 182 196 199 212 216 205 170 176 179 185 198 202 245 220
271 267 268 282 292 346 259 243 205 209 216 248 289 84 243 310 337 345 326 319 325 321 321 330 339 350 333 330 325 339 343 351 353 352 352 350 351 352 347 348 346 345 353 357 358 0 5 4 350 17 29 16 18 36 23 335 334 338 340 349 338 20 345 253 197 124 126 132 147 157 252 247 218 204 215 224 189 183 175 181 181 191 189 202 214
240 259 272 273 280 253 212 216 223 198 176 175 204 229 277 302 304 348 327 338 329 317 332 333 341 326 322 323 333 340 345 353 353 354 351 351 354 352 349 349 351 350 352 2 359 10 6 10 358 32 13 0 22 16 359 334 328 353 331 347 5 42 340 250 134 111 125 141 134 171 187 230 234 210 214 223 180 180 174 184 194 195 196 201 216
258 262 258 262 255 226 183 198 215 215 161 158 206 226 234 263 295 273 261 4 305 317 329 333 315 312 322 336 328 330 342 349 354 353 350 352 355 350 351 352 353 353 349 359 356 6 10 19 8 26 358 1 9 2 356 349 346 335 355 335 60 62 34 62 121 134 145 142 136 200 201 199 204 226 220 187 196 180 164 182 188 205 199 200 196
258 257 259 259 234 182 177 200 213 190 168 174 207 222 233 251 285 303 318 337 298 310 330 305 309 328 321 314 335 332 343 349 353 350 347 353 349 352 352 354 352 357 349 351 357 357 14 14 9 356 10 11 16 10 2 8 6 356 344 5 69 83 76 55 112 124 146 152 141 156 225 170 202 237 209 191 183 176 185 181 194 201 207 204 196
236 262 263 253 184 182 193 202 196 171 170 190 209 215 216 264 275 314 320 286 298 314 294 306 325 316 329 347 310 317 332 346 350 350 347 350 350 351 356 354 355 358 353 351 356 8 18 19 20 12 2 9 11 25 34 36 23 33 24 20 28 52 46 71 99 112 131 142 145 144 159 171 183 196 201 180 168 166 179 208 205 221 216 215 205
218 245 244 255 95 165 202 184 175 178 178 204 205 209 228 276 321 308 293 290 313 289 294 317 318 323 341 328 287 297 317 338 349 349 349 350 357 356 358 356 358 356 356 354 356 10 18 28 28 31 8 358 15 23 38 49 45 42 41 37 29 40 47 74 100 100 83 101 125 114 102 92 108 155 176 171 166 173 172 209 213 198 206 206 199
222 239 239 67 148 192 189 173 185 177 190 200 200 221 231 264 275 277 277 298 293 295 310 318 327 340 333 313 305 321 323 331 343 345 342 351 0 358 357 0 357 351 355 353 348 1 13 16 22 32 36 30 23 22 34 40 47 46 42 40 33 38 41 56 73 79 80 48 42 76 68 55 49 56 70 88 120 156 170 178 172 192 198 217 206
209 247 339 282 242 129 170 153 179 179 197 199 211 220 237 231 257 273 279 273 277 294 318 335 338 341 326 333 321 317 317 343 343 343 334 348 357 359 3 4 357 347 345 348 348 0 12 6 24 37 37 39 33 35 41 59 51 39 44 43 38 38 39 43 46 45 39 42 46 37 36 31 28 41 41 47 59 95 159 159 166 180 199 180 216
221 159 150 196 110 149 137 146 183 186 195 203 215 232 189 261 274 255 270 270 289 306 322 338 343 334 341 344 329 342 335 337 334 341 340 350 354 6 6 4 356 340 345 352 355 6 8 10 8 25 31 32 28 22 40 37 40 59 54 42 43 37 35 50 55 48 33 27 33 47 49 41 22 22 9 29 26 20 23 34 38 159 190 199 209
220 219 211 144 177 126 144 169 183 186 185 194 199 219 201 262 258 266 298 306 308 314 348 357 350 352 341 8 2 351 341 336 326 329 342 349 354 4 10 7 349 342 353 359 352 3 8 13 10 4 18 23 28 31 42 54 37 30 38 54 59 47 40 46 55 51 55 45 36 37 41 51 39 33 22 20 23 28 23 21 19 19 16 9 355
218 199 158 164 184 145 167 167 173 182 196 197 205 212 208 220 259 304 311 337 322 7 22 15 357 349 359 350 8 342 346 344 317 320 337 356 359 360 10 0 344 353 2 1 2 4 4 2 18 7 4 14 15 20 32 52 63 53 39 38 39 46 83 65 56 52 48 48 41 45 60 48 44 42 52 26 12 36 39 27 22 17 12 6 0
193 174 169 163 163 148 162 158 152 169 179 198 206 211 220 208 236 26 4 22 26 37 40 20 13 16 11 14 2 343 353 353 328 313 318 354 5 0 5 354 344 352 7 10 13 8 6 353 13 14 5 3 10 7 12 18 28 67 74 66 39 40 67 93 101 71 36 49 66 74 47 62 63 51 30 18 20 13 28 27 22 15 13 7 356
181 179 170 174 149 149 136 123 118 136 210 210 200 207 173 202 170 125 85 78 64 51 54 44 43 36 24 20 353 344 6 356 346 329 320 338 357 1 357 356 344 355 8 14 18 12 10 11 9 15 13 9 11 4 359 2 4 4 51 63 75 51 53 60 58 57 59 23 18 17 14 337 72 59 48 35 25 29 19 8 8 3 27 22 354
161 169 164 168 164 143 139 129 128 129 177 202 206 192 183 166 129 147 132 101 89 73 52 56 46 39 27 5 0 353 5 351 352 342 324 347 5 17 7 356 349 358 11 15 19 19 14 14 18 11 23 25 6 1 351 333 349 348 350 54 53 59 56 64 33 41 17 9 8 2 345 14 17 36 28 7 7 17 36 15 350 342 333 356 331
141 148 153 160 150 132 137 131 115 148 190 192 189 181 170 165 148 146 143 92 89 83 64 55 50 42 20 11 10 7 5 356 353 345 339 351 357 27 9 7 359 2 13 17 15 15 5 5 19 16 15 36 22 2 356 332 341 348 355 30 62 46 44 28 37 27 6 17 50 47 22 14 12 10 9 6 2 359 351 354 345 305 325 319 304
132 149 147 136 123 135 157 139 121 169 197 165 173 190 179 148 146 111 99 87 89 94 68 55 50 43 23 20 17 17 7 3 4 356 2 349 354 20 16 22 0 13 16 19 9 8 359 0 349 35 24 37 29 6 1 327 338 13 47 52 60 65 79 54 49 16 2 21 17 18 38 24 27 13 8 0 350 342 333 333 332 336 325 316 300
137 151 141 121 122 147 138 122 142 136 111 5 108 166 50 20 55 86 87 78 73 65 63 53 51 48 34 28 24 20 17 18 11 6 11 4 1 5 23 22 10 12 14 13 17 19 15 13 2 21 48 40 48 14 3 344 28 7 348 64 71 77 59 87 39 14 29 34 25 41 30 31 15 4 350 332 317 306 309 312 319 319 309 306 309
129 127 109 141 138 140 120 125 109 128 106 76 271 96 90 65 42 91 90 101 71 76 76 67 58 57 45 37 29 26 23 25 18 17 16 12 8 6 14 20 25 5 9 26 26 27 19 16 14 12 360 51 48 38 20 21 11 342 268 276 38 178 119 135 21 27 50 29 27 51 49 70 71 356 341 329 342 340 333 330 328 319 313 307 304
143 138 130 126 128 123 116 120 116 107 109 69 42 64 61 73 68 83 79 64 102 119 99 78 66 58 52 41 35 27 26 28 23 20 28 24 18 15 10 22 23 15 7 20 32 31 25 21 15 18 0 22 33 39 31 28 27 1 53 22 5 308 153 59 346 38 41 42 43 73 54 37 49 44 23 7 355 344 346 347 326 310 307 302 299
129 109 103 113 104 109 109 110 103 94 80 77 85 127 138 131 119 115 125 122 132 122 110 74 58 57 54 41 34 29 30 30 26 26 24 26 23 20 19 24 27 23 14 23 27 27 20 28 11 23 25 7 18 30 42 33 37 25 13 353 198 132 36 349 325 108 337 34 82 50 46 37 36 15 360 353 353 356 356 353 350 340 329 321 314
121 77 61 96 118 114 114 112 104 94 86 78 88 154 148 154 167 161 152 135 94 68 56 51 50 48 51 54 45 36 34 35 32 29 29 26 27 23 24 27 32 29 25 26 25 24 28 19 18 12 26 18 342 15 27 54 38 32 35 47 23 10 339 331 301 25 346 66 63 18 22 39 18 355 352 357 4 352 352 342 335 328 321 315 311
96 103 114 106 103 101 98 96 97 91 70 75 105 128 106 89 84 81 83 97 105 81 75 74 79 71 69 60 54 44 38 40 37 34 33 31 31 27 27 31 31 31 29 33 31 24 25 21 14 23 24 18 5 23 22 9 54 54 34 40 37 32 21 328 8 311 314 121 285 328 352 20 1 344 348 0 351 345 341 330 322 315 312 311 313
113 125 117 116 110 106 103 97 91 85 74 79 76 80 110 105 103 95 86 86 91 103 95 87 80 81 74 65 62 54 45 41 41 38 36 35 34 35 33 35 36 33 33 37 34 26 25 28 24 26 29 32 26 20 18 27 10 22 13 27 31 33 13 30 2 342 311 301 305 308 133 1 344 332 358 349 344 347 332 325 321 320 323 324 318
125 128 124 116 111 105 101 95 88 84 76 73 84 72 88 108 107 107 101 95 101 101 98 92 87 81 79 69 64 61 54 47 42 41 39 39 40 41 40 41 39 36 35 39 37 35 36 33 29 30 28 34 34 22 23 24 17 22 357 17 10 6 42 54 62 8 344 319 307 333 327 337 331 29 355 337 354 337 324 319 315 313 312 314 319
107 111 114 117 113 109 103 96 87 84 82 84 88 88 90 98 101 105 112 113 111 104 97 92 88 85 79 73 68 62 56 53 46 41 43 42 43 45 46 45 43 39 38 38 38 37 36 37 37 38 33 40 37 38 34 20 26 22 15 6 18 8 34 43 23 3 349 323 311 319 330 336 339 341 338 357 340 333 331 326 322 327 332 335 338
117 123 117 115 114 110 108 95 90 91 87 87 90 91 86 90 97 103 108 113 111 113 109 96 93 87 82 75 72 66 60 57 52 47 44 41 47 47 49 49 48 46 42 40 37 36 34 36 37 41 40 37 33 37 37 31 23 31 23 21 23 18 18 3 1 358 349 337 330 322 330 337 333 327 353 345 339 339 342 337 341 349 349 343 348